Latest Weather Observations for Dunalley

IDT60901

Issued at 9:25 am EDT Tuesday 25 November 2014 (issued every 10 minutes, with the page automatically refreshed every 10 minutes)

About weather observations | Map of Hobart area stations | Latest observations for Hobart area | Other Formats
Station Details ID: 094254 Name: DUNALLEY (STROUD POINT) Lat: -42.90 Lon: 147.79 Height: 12.43 m
Data from the previous 72 hours. | See also: Recent months at Dunalley
Date/Time
EDT
Tmp

°C
App
Tmp
°C
Dew
Point
°C
Rel
Hum
%
Delta-T

°C
Wind Press
QNH
hPa
Press
MSL
hPa
Rain
since
9 am
mm
Dir
 
Spd
km/h
Gust
km/h
Spd
kts
Gust
kts
25/09:00am 14.4 2.5 7.2 62 3.5 WSW 59 72 32 39 1004.1 1004.1 3.4
25/08:30am 14.1 1.4 6.7 61 3.6 WSW 63 80 34 43 1003.5 1003.5 3.4
25/08:00am 14.0 3.8 7.1 63 3.4 WSW 50 69 27 37 1002.9 1002.9 3.4
25/07:30am 13.7 2.4 7.2 65 3.2 WSW 56 69 30 37 1002.5 1002.5 3.4
25/07:18am 13.8 3.4 7.6 66 3.0 WSW 52 70 28 38 1002.4 1002.4 3.4
25/07:00am 13.5 1.6 6.8 64 3.3 WSW 59 70 32 38 1002.1 1002.1 3.4
25/06:30am 13.2 1.9 7.2 67 2.9 WSW 56 65 30 35 1001.8 1001.8 3.4
25/06:04am 13.0 2.9 7.5 69 2.7 WSW 50 69 27 37 1001.0 1001.0 3.4
25/06:00am 13.0 2.9 7.5 69 2.7 WSW 50 56 27 30 1001.0 1001.0 3.4
25/05:50am 12.5 6.0 6.5 67 2.9 W 30 48 16 26 1001.1 1001.1 3.4
25/05:30am 12.1 6.9 5.7 65 3.0 W 22 35 12 19 1001.0 1001.0 3.4
25/05:00am 11.9 6.4 6.0 67 2.8 W 24 37 13 20 1000.7 1000.7 3.4
25/04:30am 11.5 6.7 5.4 66 2.8 WNW 20 32 11 17 1000.3 1000.3 3.4
25/04:00am 11.6 6.0 5.5 66 2.8 NW 24 39 13 21 1000.5 1000.5 3.4
25/03:30am 11.4 4.6 5.1 65 2.9 WNW 30 39 16 21 1000.6 1000.6 3.4
25/03:01am 11.3 4.1 5.0 65 2.9 WNW 32 52 17 28 1000.3 1000.3 3.4
25/03:00am 11.1 3.9 5.0 66 2.8 WNW 32 44 17 24 1000.3 1000.3 3.4
25/02:30am 11.1 3.9 5.0 66 2.8 WNW 32 44 17 24 1000.5 1000.5 3.4
25/02:00am 10.9 4.4 4.8 66 2.8 WNW 28 41 15 22 1000.7 1000.7 3.4
25/01:30am 10.9 5.9 4.8 66 2.8 NW 20 30 11 16 1001.3 1001.3 3.4
25/01:00am 11.3 5.2 4.7 64 3.0 WNW 26 35 14 19 1001.6 1001.6 3.4
25/12:30am 11.2 6.0 5.3 67 2.7 WNW 22 35 12 19 1001.8 1001.8 3.4
25/12:00am 11.1 6.2 5.2 67 2.7 NW 20 28 11 15 1002.0 1002.0 3.4
 
Date/Time
EDT
Tmp

°C
App
Tmp
°C
Dew
Point
°C
Rel
Hum
%
Delta-T

°C
Wind Press
QNH
hPa
Press
MSL
hPa
Rain
since
9 am
mm
Dir
 
Spd
km/h
Gust
km/h
Spd
kts
Gust
kts
24/11:30pm 11.2 6.4 5.5 68 2.6 WNW 20 30 11 16 1002.5 1002.5 3.4
24/11:00pm 11.9 6.7 5.3 64 3.1 WNW 22 33 12 18 1002.5 1002.5 3.4
24/10:30pm 12.0 6.4 5.2 63 3.1 WNW 24 32 13 17 1002.4 1002.4 3.4
24/10:00pm 12.3 6.8 5.9 65 3.0 WNW 24 35 13 19 1002.6 1002.6 3.4
24/09:30pm 12.7 8.9 7.4 70 2.6 W 17 32 9 17 1002.3 1002.3 3.4
24/09:00pm 13.5 12.2 12.6 94 0.5 ENE 11 15 6 8 1002.1 1002.1 3.4
24/08:30pm 13.3 12.9 12.5 95 0.4 ENE 6 9 3 5 1001.9 1001.9 3.4
24/08:00pm 13.5 13.3 12.9 96 0.3 ENE 6 7 3 4 1002.0 1002.0 3.4
24/07:30pm 13.5 13.3 12.9 96 0.3 ENE 6 7 3 4 1001.6 1001.6 2.8
24/07:00pm 13.5 12.6 12.7 95 0.4 ENE 9 15 5 8 1001.5 1001.5 2.8
24/06:30pm 13.8 13.7 13.2 96 0.3 ENE 6 7 3 4 1001.2 1001.2 2.8
24/06:00pm 13.4 13.4 12.5 94 0.5 ENE 4 4 2 2 1001.9 1001.9 2.6
24/05:30pm 13.3 14.0 12.2 93 0.6 CALM 0 0 0 0 1002.1 1002.1 2.4
24/05:00pm 13.5 12.5 12.4 93 0.6 ENE 9 11 5 6 1002.5 1002.5 2.2
24/04:30pm 14.2 13.6 12.2 88 1.1 ENE 7 9 4 5 1002.6 1002.6 1.2
24/04:00pm 14.3 12.7 12.7 90 0.9 ENE 13 17 7 9 1003.0 1003.0 1.2
24/03:30pm 14.9 11.8 12.2 84 1.5 ENE 20 24 11 13 1003.3 1003.3 1.0
24/03:00pm 15.0 11.6 11.4 79 1.9 ENE 20 28 11 15 1003.5 1003.5 1.0
24/02:30pm 15.4 13.6 10.8 74 2.4 NE 11 17 6 9 1004.3 1004.3 1.0
24/02:00pm 14.9 13.2 11.1 78 2.0 ENE 11 20 6 11 1004.8 1004.8 1.0
24/01:30pm 14.6 11.7 11.0 79 1.9 ENE 17 22 9 12 1005.4 1005.4 1.0
24/01:00pm 14.6 9.9 10.8 78 2.0 NE 26 32 14 17 1005.8 1005.8 1.0
24/12:30pm 14.5 11.6 10.9 79 1.9 NNE 17 20 9 11 1006.0 1006.0 1.0
24/12:00pm 14.0 10.5 10.8 81 1.7 NE 20 26 11 14 1006.8 1006.8 1.0
24/11:30am 13.9 11.4 11.2 84 1.4 NE 15 22 8 12 1007.5 1007.5 1.0
24/11:00am 14.0 12.1 10.4 79 1.9 NE 11 15 6 8 1008.4 1008.4 0.6
24/10:30am 14.2 12.0 9.4 73 2.5 ENE 11 15 6 8 1008.5 1008.5 0.4
24/10:00am 14.7 11.7 10.5 76 2.2 ENE 17 20 9 11 1007.8 1007.8 0.2
24/09:30am 14.1 10.6 10.9 81 1.7 NE 20 22 11 12 1008.6 1008.6 0.2
24/09:00am 14.4 12.9 10.6 78 2.0 NE 9 15 5 8 1008.6 1008.6 0.0
24/08:30am 14.3 13.8 10.9 80 1.8 NNE 4 4 2 2 1009.0 1009.0 0.0
24/08:00am 14.2 13.9 11.5 84 1.4 NNE 4 6 2 3 1008.5 1008.5 0.0
24/07:30am 13.7 13.6 12.1 90 0.9 NNE 4 9 2 5 1008.4 1008.4 0.0
24/07:00am 13.1 12.3 11.0 87 1.1 NNE 6 9 3 5 1008.6 1008.6 0.0
24/06:30am 12.6 11.7 11.2 91 0.7 NNE 7 11 4 6 1008.9 1008.9 0.0
24/06:00am 12.5 11.3 11.6 94 0.5 NNE 9 15 5 8 1008.7 1008.7 0.0
24/05:30am 10.9 9.6 9.3 90 0.8 NNE 6 9 3 5 1009.2 1009.2 0.0
24/05:00am 10.9 9.6 9.8 93 0.6 NNE 7 11 4 6 1009.2 1009.2 0.0
24/04:30am 10.5 9.1 9.6 94 0.5 NNE 7 9 4 5 1009.3 1009.3 0.0
24/04:00am 11.4 10.3 10.6 95 0.4 NNE 7 11 4 6 1009.3 1009.3 0.0
24/03:30am 11.9 11.2 11.4 97 0.3 NNE 6 7 3 4 1009.7 1009.7 0.0
24/03:00am 12.9 12.5 12.3 96 0.3 NE 6 11 3 6 1009.8 1009.8 0.0
24/02:30am 13.1 11.0 12.5 96 0.3 NNE 15 17 8 9 1010.0 1010.0 0.0
24/02:00am 13.3 11.3 12.7 96 0.3 NNE 15 19 8 10 1010.1 1010.1 0.0
24/01:30am 13.5 11.1 12.7 95 0.4 NNE 17 19 9 10 1010.5 1010.5 0.0
24/01:00am 13.9 11.6 13.1 95 0.4 NE 17 20 9 11 1010.8 1010.8 0.0
24/12:30am 14.1 11.8 13.0 93 0.6 NE 17 22 9 12 1011.4 1011.4 0.0
24/12:00am 14.3 12.5 13.2 93 0.6 NE 15 20 8 11 1011.6 1011.6 0.0
 
Date/Time
EDT
Tmp

°C
App
Tmp
°C
Dew
Point
°C
Rel
Hum
%
Delta-T

°C
Wind Press
QNH
hPa
Press
MSL
hPa
Rain
since
9 am
mm
Dir
 
Spd
km/h
Gust
km/h
Spd
kts
Gust
kts
23/11:30pm 14.3 14.0 13.2 93 0.6 NNE 7 15 4 8 1011.9 1011.9 0.0
23/11:00pm 14.4 10.4 13.1 92 0.7 NE 26 32 14 17 1011.8 1011.8 0.0
23/10:30pm 14.9 9.8 13.1 89 1.0 NE 32 41 17 22 1011.8 1011.8 0.0
23/10:00pm 15.1 9.3 12.8 86 1.3 NE 35 41 19 22 1011.6 1011.6 0.0
23/09:30pm 15.1 8.9 12.6 85 1.4 NE 37 44 20 24 1011.5 1011.5 0.0
23/09:00pm 15.1 9.6 12.4 84 1.5 ENE 33 44 18 24 1011.2 1011.2 0.0
23/08:30pm 15.2 8.6 12.5 84 1.5 ENE 39 46 21 25 1011.1 1011.1 0.0
23/08:00pm 15.2 10.2 12.3 83 1.6 ENE 30 39 16 21 1011.0 1011.0 0.0
23/07:30pm 15.3 9.4 12.4 83 1.6 ENE 35 43 19 23 1010.8 1010.8 0.0
23/07:00pm 15.4 9.1 12.2 81 1.7 ENE 37 48 20 26 1010.2 1010.2 0.0
23/06:30pm 15.6 9.2 12.0 79 2.0 ENE 37 46 20 25 1009.9 1009.9 0.0
23/06:00pm 15.9 9.5 11.9 77 2.2 ENE 37 46 20 25 1009.7 1009.7 0.0
23/05:30pm 16.5 10.1 11.9 74 2.5 ENE 37 48 20 26 1009.3 1009.3 0.0
23/05:00pm 16.9 10.5 12.0 73 2.7 ENE 37 48 20 26 1009.0 1009.0 0.0
23/04:30pm 17.4 11.1 12.3 72 2.8 ENE 37 48 20 26 1008.9 1008.9 0.0
23/04:00pm 17.5 11.0 11.8 69 3.1 ENE 37 50 20 27 1008.7 1008.7 0.0
23/03:30pm 17.8 11.6 11.4 66 3.5 ENE 35 43 19 23 1008.8 1008.8 0.0
23/03:00pm 18.1 12.0 11.7 66 3.5 NE 35 48 19 26 1008.8 1008.8 0.0
23/02:30pm 18.9 13.3 11.5 62 4.1 NE 32 41 17 22 1008.8 1008.8 0.0
23/02:00pm 19.1 14.8 12.1 64 3.9 ENE 26 33 14 18 1008.8 1008.8 0.0
23/01:30pm 18.8 13.3 11.9 64 3.8 NE 32 37 17 20 1008.7 1008.7 0.0
23/01:00pm 19.8 16.3 13.5 67 3.6 NE 24 30 13 16 1008.4 1008.4 0.0
23/12:30pm 19.9 18.9 11.1 57 4.8 SW 7 9 4 5 1008.6 1008.6 0.0
23/12:00pm 19.9 18.0 8.9 49 5.8 SW 9 13 5 7 1008.6 1008.6 0.0
23/11:30am 18.9 16.5 8.8 52 5.3 SW 11 15 6 8 1008.6 1008.6 0.0
23/11:00am 18.4 15.4 9.2 55 4.8 WSW 15 19 8 10 1008.5 1008.5 0.0
23/10:30am 18.6 14.9 10.2 58 4.5 WSW 20 24 11 13 1008.4 1008.4 0.0
23/10:00am 18.1 13.9 9.7 58 4.4 WSW 22 28 12 15 1008.1 1008.1 0.0
23/09:30am 18.2 13.2 7.9 51 5.3 W 24 30 13 16 1007.8 1007.8 0.0
23/09:00am 17.0 13.1 10.8 67 3.3 WSW 22 28 12 15 1007.7 1007.7 0.0
23/08:30am 16.3 16.3 13.6 84 1.5 N 6 9 3 5 1007.8 1007.8 0.0
23/08:00am 15.9 16.2 13.4 85 1.4 N 4 6 2 3 1007.4 1007.4 0.0
23/07:30am 14.9 14.6 12.8 87 1.2 N 6 9 3 5 1006.7 1006.7 0.0
23/07:00am 14.9 14.8 13.3 90 0.9 N 6 7 3 4 1006.3 1006.3 0.0
23/06:30am 14.3 13.5 12.9 91 0.8 N 9 13 5 7 1005.8 1005.8 0.0
23/06:00am 13.0 13.2 11.7 92 0.7 N 2 4 1 2 1005.3 1005.3 0.0
23/05:30am 12.6 12.7 11.5 93 0.6 N 2 4 1 2 1004.7 1004.7 0.0
23/05:00am 12.7 12.0 11.4 92 0.7 N 6 6 3 3 1004.0 1004.0 0.0
23/04:30am 13.2 13.0 11.9 92 0.7 N 4 4 2 2 1003.9 1003.9 0.0
23/04:00am 13.1 13.3 11.7 91 0.7 N 2 6 1 3 1003.6 1003.6 0.0
23/03:30am 13.1 12.0 12.0 93 0.6 N 9 11 5 6 1003.5 1003.5 0.0
23/03:00am 13.1 11.6 11.8 92 0.7 N 11 13 6 7 1003.5 1003.5 0.0
23/02:30am 13.3 12.0 11.2 87 1.1 N 9 9 5 5 1003.4 1003.4 0.0
23/02:00am 13.3 12.4 11.5 89 1.0 N 7 9 4 5 1003.2 1003.2 0.0
23/01:30am 13.2 12.4 11.6 90 0.9 N 7 9 4 5 1003.0 1003.0 0.0
23/01:00am 13.8 14.4 11.8 88 1.1 CALM 0 0 0 0 1003.0 1003.0 0.0
23/12:30am 14.8 14.2 11.8 82 1.6 N 6 7 3 4 1003.2 1003.2 0.0
23/12:00am 14.5 13.9 11.8 84 1.5 N 6 7 3 4 1003.3 1003.3 0.0
 
Date/Time
EDT
Tmp

°C
App
Tmp
°C
Dew
Point
°C
Rel
Hum
%
Delta-T

°C
Wind Press
QNH
hPa
Press
MSL
hPa
Rain
since
9 am
mm
Dir
 
Spd
km/h
Gust
km/h
Spd
kts
Gust
kts
22/11:30pm 14.5 13.7 11.8 84 1.5 N 7 9 4 5 1003.4 1003.4 0.0
22/11:00pm 15.4 13.2 12.2 81 1.8 N 15 17 8 9 1003.5 1003.5 0.0
22/10:30pm 15.2 13.7 13.2 88 1.1 N 13 17 7 9 1003.7 1003.7 0.0
22/10:00pm 14.8 14.3 12.5 86 1.3 NNW 7 9 4 5 1003.9 1003.9 0.0
22/09:30pm 16.2 16.5 12.2 77 2.2 NNW 2 4 1 2 1003.8 1003.8 0.0
22/09:00pm 15.6 16.3 12.2 80 1.9 CALM 0 2 0 1 1003.7 1003.7 0.0
22/08:30pm 16.1 15.8 12.7 80 1.9 NNW 6 7 3 4 1003.9 1003.9 0.0
22/08:00pm 16.2 15.8 13.1 82 1.7 N 7 15 4 8 1003.7 1003.7 0.0
22/07:30pm 17.0 17.5 12.7 76 2.4 N 2 4 1 2 1003.5 1003.5 0.0
22/07:00pm 17.7 17.6 13.2 75 2.5 N 6 11 3 6 1003.5 1003.5 0.0
22/06:30pm 18.6 18.7 12.8 69 3.3 N 4 7 2 4 1003.0 1003.0 0.0
22/06:00pm 19.4 19.7 12.2 63 4.0 N 2 6 1 3 1003.0 1003.0 0.0
22/05:30pm 18.3 17.2 13.2 72 2.9 N 11 13 6 7 1003.1 1003.1 0.0
22/05:00pm 21.1 20.7 12.3 57 5.0 N 6 11 3 6 1003.1 1003.1 0.0
22/04:30pm 22.4 21.3 12.1 52 5.8 N 9 15 5 8 1003.1 1003.1 0.0
22/04:00pm 21.8 20.0 10.9 50 6.0 N 11 17 6 9 1003.0 1003.0 0.0
22/03:30pm 20.0 18.7 12.5 62 4.2 NNE 11 17 6 9 1003.7 1003.7 0.0
22/03:00pm 19.6 17.8 12.1 62 4.2 NE 13 17 7 9 1004.1 1004.1 0.0
22/02:30pm 19.7 17.5 12.2 62 4.2 ENE 15 19 8 10 1004.5 1004.5 0.0
22/02:00pm 20.1 17.6 11.1 56 4.9 NE 15 20 8 11 1004.7 1004.7 0.0
22/01:30pm 18.5 15.3 11.3 63 3.9 NE 19 22 10 12 1005.1 1005.1 0.0
22/01:00pm 16.6 13.0 10.5 67 3.3 NE 20 26 11 14 1005.7 1005.7 0.0
22/12:30pm 16.4 10.5 9.1 62 3.8 NE 30 35 16 19 1005.7 1005.7 0.0
22/12:00pm 18.3 12.7 8.8 54 4.9 ENE 28 33 15 18 1005.8 1005.8 0.0
22/11:30am 17.7 12.4 8.6 55 4.7 NE 26 32 14 17 1006.0 1006.0 0.0
22/11:00am 16.4 12.1 7.9 57 4.3 NE 20 30 11 16 1006.3 1006.3 0.0
22/10:30am 16.3 11.9 7.5 56 4.4 NE 20 24 11 13 1006.4 1006.4 0.0
22/10:00am 15.2 10.8 7.5 60 3.8 NE 20 26 11 14 1006.9 1006.9 0.0
22/09:30am 16.0 13.7 5.9 51 4.9 N 7 11 4 6 1007.2 1007.2 0.0

Latest Capital City Observations: Canberra | Sydney | Melbourne | Brisbane | Adelaide | Perth | Hobart | Darwin

Other Formats:

Comma delimited format used in spreadsheet applications
http://www.bom.gov.au/fwo/IDT60901/IDT60901.94951.axf

JavaScript Object Notation format (JSON) in row-major order
http://www.bom.gov.au/fwo/IDT60901/IDT60901.94951.json